Back to catalog

STARLINK-31872

AliveCommunicationsVLEO
NORAD 59922·PAYLOAD·🇺🇸 United States

Launched Jun 1, 2024 from Cape Canaveral Space Force Station

Loading…

Next Passes (next 24 hours)

TLE

FreshSource: CelesTrak SupGP

Epoch: Sep 14, 2026, 14:28 UTC

1 59922C 24106A   26257.60326389 -.00000577  00000+0 -20915-4 0  2577
2 59922  43.0031 345.9819 0001352 272.4464 343.4113 15.27567214    19

Track STARLINK-31872 in real time with AllMySat

Download on the App Store